www.pogodaiklimat.ru
ПОГОДА в Хмельницком

Архив погоды в Хмельницком (Хмельницкая область, Украина)

Время
(UTC), дата
00 29.01
03 29.01
06 29.01
09 29.01
12 29.01
15 29.01
18 29.01
21 29.01
00 30.01
03 30.01
06 30.01
09 30.01
12 30.01
15 30.01
18 30.01
21 30.01
00 31.01
03 31.01
06 31.01
09 31.01
12 31.01
15 31.01
18 31.01
21 31.01
00 1.02
03 1.02
06 1.02
09 1.02
12 1.02
15 1.02
18 1.02
21 1.02
00 2.02
03 2.02
06 2.02
09 2.02
12 2.02
15 2.02
18 2.02
21 2.02
00 3.02
03 3.02
06 3.02
09 3.02
12 3.02
15 3.02
18 3.02
21 3.02
00 4.02
03 4.02
06 4.02
09 4.02
12 4.02
15 4.02
18 4.02
21 4.02
Ветер
(напр.,м/с)
Видим. Явления Облачность Т
(С)
Тd
(С)
f
(%)
Тe
(С)
Тes
(С)
Комфортность P
(гПа)
Po
(гПа)
Тmin
(С)
Tmax
(С)
R
(мм)
R24
(мм)
S
(см)
С 4 10 км слаб. снег 10/8 480 м
[Frnb As op]
-2.3 -5.1 81 -8 -8 по сезону 1021.8 978.1 0.0
С 5 10 км {снег} 10/8 540 м
[Sc Ac und]
-2.6 -4.8 85 -9 -9 по сезону 1022.2 978.4
С 6 10 км в посл. час снег 10/8 500 м
[Sc Ac und]
-2.6 -4.8 85 -10 -10 по сезону 1022.5 978.7 -2.6 0.0
СЗ 5 10 км слаб. ливневой снег 10/8 600 м
[Cb calv Ac und]
-2.1 -4.9 81 -9 -9 по сезону 1022.9 979.1
СЗ 6 4000 м слаб. переохл. дождь (гололёд) {ливн. снег} [диам. гололёда 0 мм] 10/9 330 м
[Frnb As op]
-2.3 -3.5 91 -10 -10 прохладно 1021.5 977.8 0.1
СЗ 5 10 км {дождь} 10/10 630 м
[Sc]
-2.6 -5.2 82 -9 -9 по сезону 1021.0 977.2
СЗ 4 10 км {ливн. снег, дождь} [диам. гололёда 0 мм] 10/8 800 м
[Sc Ac und]
-2.8 -5.8 80 -9 -9 по сезону 1021.0 977.2 -1.7 0.1
З 3 10 км 10/10 1000 м
[Sc]
-3.0 -6.4 77 -8 -8 по сезону 1020.6 976.8
З 4 10 км 9/6 900 м
[Sc Ac trans]
-3.3 -6.0 82 -9 -9 по сезону 1019.1 975.3
ЮЗ 5 4000 м дымка 10/10 330 м
[St]
-3.8 -4.6 94 -11 -11 по сезону 1016.9 973.1
ЮЗ 5 4000 м слаб. переохл. морось (гололёд) [диам. гололёда 0 мм] 10/10 180 м
[St]
-3.4 -3.8 97 -10 -10 по сезону 1015.0 971.4 -4.0 0.0
ЮЗ 5 10 км {морось} 10/10 240 м
[Sc]
-2.2 -3.7 89 -9 -9 по сезону 1012.7 969.4
Ю 8 10 км {морось} [диам. гололёда 0 мм] 8/3 600 м
[Sc Ac trans Ci fib]
+0.3 -2.9 79 -7 -7 по сезону 1007.9 965.2 0.0
Ю 5 10 км 8/5 800 м
[Sc Ac trans]
-0.3 -2.6 84 -6 -6 по сезону 1006.8 964.0
ЮЗ 4 10 км слаб. ливневой снег 10/10 750 м
[Cb calv]
-0.9 -2.2 91 -7 -7 по сезону 1006.5 963.6 +0.7 0.2
З 5 10 км слаб. ливневой снег 10/10 600 м
[Cb calv]
-1.8 -2.0 99 -9 -9 по сезону 1006.4 963.4
З 6 10 км в посл. час ливневой снег 10/10 630 м
[Cb calv]
-0.9 -1.6 95 -8 -8 по сезону 1005.9 963.1 0.3
З 3 10 км {ливн. снег} 10/10 630 м
[Cb calv]
-0.8 -1.7 94 -6 -6 по сезону 1006.8 964.0
З 4 10 км {ливн. снег} 10/10 600 м
[Sc]
-0.3 -1.4 92 -6 -6 по сезону 1007.8 965.0 -1.8 0.5 2
З 5 10 км 9/6 400 м
[Sc Ac trans]
+0.7 -1.3 86 -5 -5 по сезону 1009.2 966.5
З 5 10 км {ливн. снег} 10/10 400 м
[Ac und]
+1.3 -0.3 89 -5 -4 по сезону 1009.4 966.8 0.3
З 4 10 км 10/6 600 м
[Cb calv Ac und]
+1.0 -1.5 83 -4 -4 по сезону 1010.7 968.0
З 4 10 км 10/6 600 м
[Cb calv Ac und]
+0.7 -1.6 85 -5 -5 по сезону 1011.9 969.1 +1.4 0.3
З 6 10 км слаб. ливневой дождь со снегом 10/8 480 м
[Cb calv As op]
+0.1 -1.8 87 -7 -7 по сезону 1012.2 969.3
З 4 10 км {ливн. снег} 8/0
[Ac trans]
-0.4 -2.2 88 -6 -6 по сезону 1011.1 968.1 0.0
ЮЗ 4 10 км 9/0
[Ac trans]
-1.9 -3.7 87 -8 -8 по сезону 1009.4 966.3
ЮЗ 7 1000 м ливневой снег {метель} 10/10 120 м
[Cb calv]
-1.6 -1.8 99 -9 -9 по сезону 1008.0 965.0 -2.3 2 6
З 7 10 км в посл. час ливневой снег {метель} 10/8 240 м
[Cb cap Ac und]
+0.8 -0.9 88 -6 -6 по сезону 1007.6 965.0
З 6 20 км {ливн. снег, метель} 10/8 500 м
[Cb cap Ac und]
+1.6 -1.8 78 -4 -4 по сезону 1007.6 965.1 2
З 7 10 км слаб. ливневой дождь со снегом 9/8 540 м
[Cb cap Ac trans]
+1.4 -2.0 78 -5 -5 по сезону 1008.3 965.7
З 7 10 км слаб. ливневой дождь со снегом 10/8 720 м
[Cb cap Ac und]
+1.2 -1.6 82 -5 -5 по сезону 1008.6 966.0 +1.8 2
ЮЗ 4 10 км в посл. час ливневой снег 9/5 800 м
[Sc Ac trans]
+0.6 -1.8 84 -5 -5 по сезону 1008.3 965.6
ЮЗ 4 4000 м слаб. ливневой снег 10/8 450 м
[Cb cap Ac und]
-0.2 -1.3 92 -6 -6 по сезону 1008.2 965.4 0.3
З 5 10 км слаб. ливневой снег 10/8 150 м
[Cb cap Ac und]
-0.1 -0.7 96 -6 -6 по сезону 1007.7 964.9
ЮЗ 3 10 км {ливн. снег} 9/6 1080 м
[Sc Ac trans]
-1.1 -1.8 95 -6 -6 по сезону 1008.2 965.2 -1.6 2 6
ЮЗ 5 2000 м слаб. ливневой дождь со снегом 10/10 900 м
[Cb cap]
+0.8 -1.4 85 -5 -5 по сезону 1008.5 965.8
З 5 10 км {ливн. снег} 9/8 1000 м
[Cb calv Ac trans]
+1.5 -1.3 82 -4 -4 по сезону 1008.2 965.6 0.6
ЮЗ 4 10 км 9/6 1200 м
[Sc Ac trans]
+1.1 -1.4 83 -4 -4 по сезону 1009.1 966.4
ЮЗ 3 4000 м слаб. ливневой дождь со снегом 10/8 720 м
[Cb cap Ac und]
+0.7 -0.4 92 -4 -4 по сезону 1010.5 967.7 +1.7 0.9
ЮЗ 3 10 км слаб. ливневой дождь со снегом 10/10 330 м
[Cb cap]
+0.2 -0.4 96 -5 -5 по сезону 1011.1 968.2
СЗ 5 10 км слаб. ливневой дождь со снегом 10/8 300 м
[Cb cap Ac und]
+0.7 +0.2 96 -5 -5 по сезону 1012.5 969.7 2
СЗ 8 10 км слаб. ливневой дождь со снегом 10/8 630 м
[Cb cap Ac und]
+0.5 -0.3 94 -7 -7 по сезону 1014.5 971.5
СЗ 7 10 км {ливн. снег} 8/6 480 м
[Sc Ac trans]
-1.1 -3.0 87 -9 -9 по сезону 1016.4 973.1 -1.3 2 7
З 6 10 км {ливн. снег} 9/9 480 м
[Cb calv]
-1.1 -4.0 81 -8 -8 по сезону 1018.2 974.8
СЗ 7 10 км {ливн. снег} 8/5 540 м
[Cb calv Ac trans]
-1.0 -7.4 62 -8 -8 по сезону 1017.2 973.8 0.4
З 3 10 км 8/3 600 м
[Sc Ac trans Ci fib]
-2.2 -5.0 81 -7 -7 по сезону 1015.5 972.0
ЮВ 2 10 км 6/0
[Ac trans Ci fib]
-5.2 -7.3 85 -9 -9 по сезону 1014.3 970.4 -0.4 0.4
ЮВ 2 10 км 9/0
[Ac trans Ci fib]
-6.6 -8.6 86 -11 -11 по сезону 1013.4 969.3
ЮВ 2 10 км 9/0
[Ac trans Ci fib]
-6.6 -8.6 86 -11 -11 по сезону 1012.0 968.0
В 3 10 км 9/0
[Ac trans Ci fib]
-5.0 -6.7 88 -11 -11 по сезону 1011.5 967.8
В 4 10 км 10/6 800 м
[Sc Ac und]
-5.0 -7.0 86 -11 -11 по сезону 1012.9 969.1 -7.0 7
СВ 6 10 км слаб. снег {ливн. снег} 10/0
[As op]
-3.1 -5.8 82 -10 -10 по сезону 1015.5 971.9
С 6 10 км слаб. ливневой снег 10/8 1000 м
[Cb calv Ac und]
-2.8 -5.4 82 -10 -10 прохладно 1018.1 974.4 0.4
С 5 10 км {ливн. снег} 9/0 600 м
[Ac trans]
-3.4 -9.3 64 -10 -10 прохладно 1020.9 977.0
СЗ 3 10 км {ливн. снег} 10/4 1000 м
[Sc Ac und]
-4.1 -7.8 75 -9 -9 по сезону 1023.2 979.1 -2.0 0.4
С 5 10 км {ливн. снег} 10/4 600 м
[Cb calv Ac und]
-4.4 -6.7 84 -11 -11 по сезону 1024.8 980.6
Местоположение метеостанции Хмельницкий (Хмельницкая область, Украина): широта 49.43 долгота 26.98 высота над уровнем моря 350 м.
В архиве по умолчанию представлена погода в Хмельницком за последнюю неделю. Архивные данные за месяц целиком и за предыдущие месяцы, начиная с января 2011 года, Вы можете получить, выбрав интересующий диапазон дат из раскрывающегося списка и нажав кнопку "Найти!".
*Определитесь, кто Вы:
Внимание! Время в таблицах - всемирное. Для получения местного времени необходимо прибавить поправку, которая равна 2 ч.
Смотрите также архив погоды в соседних городах и на ближайших метеорологических станциях:
Партнеры нашего сайта:      
Пояснения к столбцам:
  • Ветер - указаны скорость ветра в м/с - средняя за 10 мин, порывы в срок и между сроками (в фигурных скобках) и направление, откуда дует ветер: С - северный,
  • СВ - северо-восточный, В - восточный, ЮВ - юго-восточный, Ю - южный, ЮЗ - юго-западный, З - западный, СЗ - северо-западный.
  • Видимость - горизонтальная дальность видимости в метрах или километрах. При видимости от 1 до 10 км при отсутствии осадков обычно наблюдается дымка, при ухудшении видимости до 1 км и менее - туман. В сухую погоду видимость может ухудшаться дымом, пылью или мглою.
  • Явления - указаны атмосферные явления, наблюдавшиеся в срок или в последний час перед сроком; фигурными скобками обозначены явления, наблюдавшиеся между сроками (за 1-3 часа до срока); квадратными скобками обозначены град или гололедные отложения с указанием их диаметра в мм.
  • Облачность - указаны через наклонную черту общая и нижняя облачность в баллах и высота нижней границы облаков в метрах; квадратными скобками обозначены формы облаков: Ci - перистые, Cs - перисто-слоистые, Cc - перисто-кучевые, Ac - высококучевые, As - высокослоистые, Sc - слоисто-кучевые, Ns - слоисто-дождевые, Cu - кучевые, Cb - кучево-дождевые. Подробнее классификацию облаков см. в Атласе облаков (PDF).
  • T - Температура воздуха - температура, измеренная на высоте 2 м над землей.
  • Td - Температура точки росы - температура, при понижении до которой содержащийся в воздухе водяной пар достигнет насыщения.
  • f - Относительная влажность воздуха - влажноcть воздуха, измеренная на высоте 2 м над землей.
  • Te - Эффективная температура - температура, которую ощущает одетый по сезону человек в тени. Характеристика душности погоды. При расчете учитывается влияние влажности воздуха и скорости ветра на теплоощущения человека.
  • Tes - Эффективная температура на солнце - температура, которую ощущает человек, с поправкой на солнечный нагрев. Характеристика знойности погоды. Зависит от высоты солнца над горизонтом, облачности и скорости ветра. Ночью, в пасмурную погоду, а также при ветре 12 м/с и более поправка равна нулю.
  • P - Атмосферное давление - приведенное к уровню моря атмосферное давление.
  • Po - Атмосферное давление - измеренное на уровне метеостанции атмосферное давление.
  • Tmin - Минимальная температура - минимум температуры воздуха на высоте 2 м над землей.
  • Tmax - Максимальная температура - максимум температуры воздуха на высоте 2 м над землей.
  • R - Количество осадков - Количество выпавших осадков за период времени, мм. При наведении курсора мыши на число - период времени, за который выпало указанное количество осадков.
  • R24 - Количество осадков - Количество выпавших осадков за 24 часа, мм.
  • S - Снежный покров - Высота снежного покрова, см. При наведении курсора мыши на число - состояние снежного покрова и степень покрытия местности в баллах.